Tracking 31027 objects as of 19-Jul-2025
HD Live streaming from Space Station
objects crossing your sky now

COSMOS 970 DEB

Track COSMOS 970 DEB now!
10-day predictions


NORAD ID: 10882
Int'l Code: 1977-121AD
Perigee: 874.8 km
Apogee: 1,087.4 km
Inclination: 65.8 °
Period: 104.6 minutes
Semi major axis: 7352 km
RCS: 0.0585 m2 (small)
Launch date: December 21, 1977
Source: Commonwealth of Independent States (former USSR) (CIS)
Launch site: TYURATAM MISSILE AND SPACE COMPLEX (TTMTR)

Note: This is SATELLITE DEBRIS
Your satellite tracking list
FENGYUN 1C DEB
Track 1 satellite(s)




NASA's NSSDC Master Catalog

Two Line Element Set (TLE):
1 10882U 77121AD  25199.24364056  .00000241  00000-0  30125-3 0  9994
2 10882  65.8236 140.6640 0144546 285.7108  72.8051 13.77160039380402
Source of the keplerian elements: AFSPC